| time (UTC) | temp C | wind direction | speed KPH | gust KPH | rain 1hr cm | rain 24hr cm | rain mn cm | humidity % | barometer mb |
| 20260504202501 | 12 | 233 | 1.6 | 6.4 | 0.33 | 1.17 | 1.17 | 93 | 1019.9 |
| 20260504202103 | 12 | 217 | 1.6 | 6.4 | 0.28 | 1.12 | 1.12 | 93 | 1015.3 |
| 20260504202002 | 12 | 196 | 1.6 | 6.4 | 0.28 | 1.12 | 1.12 | 93 | 1019.9 |
| 20260504201503 | 12 | 246 | 0.0 | 4.8 | 0.28 | 1.12 | 1.12 | 93 | 1019.8 |
| 20260504201501 | 12 | 246 | 0.0 | 4.8 | 0.28 | 1.12 | 1.12 | 93 | 1015.2 |
| 20260504201005 | 12 | 134 | 1.6 | 4.8 | 0.25 | 1.09 | 1.09 | 91 | 1019.8 |
| 20260504201001 | 12 | 134 | 0.0 | 4.8 | 0.25 | 1.09 | 1.09 | 91 | 1015.2 |
| 20260504200601 | 13 | 249 | 1.6 | 8.0 | 0.25 | 1.09 | 1.09 | 90 | 1015.1 |
| 20260504200109 | 13 | 238 | 1.6 | 9.7 | 0.18 | 1.02 | 1.02 | 85 | 1015.2 |
| 20260504200003 | 13 | 234 | 3.2 | 9.7 | 0.13 | 0.97 | 0.97 | 85 | 1015.2 |
| 20260504195600 | 13 | 285 | 4.8 | 9.7 | 0.00 | 0.91 | 0.84 | 85 | 1015.1 |
| 20260504195502 | 13 | 281 | 4.8 | 9.7 | 0.00 | 0.91 | 0.84 | 84 | 1019.7 |
| 20260504195002 | 13 | 250 | 3.2 | 9.7 | 0.00 | 0.91 | 0.84 | 85 | 1015.0 |
| 20260504194614 | 13 | 290 | 1.6 | 9.7 | 0.00 | 0.91 | 0.84 | 85 | 1015.0 |
| 20260504194503 | 13 | 248 | 1.6 | 9.7 | 0.00 | 0.91 | 0.84 | 85 | 1019.5 |
| 20260504194100 | 13 | 242 | 0.0 | 11.3 | 0.00 | 0.91 | 0.84 | 85 | 1014.9 |
| 20260504193600 | 13 | 316 | 3.2 | 11.3 | 0.00 | 0.91 | 0.84 | 85 | 1014.9 |
| 20260504193502 | 13 | 270 | 4.8 | 11.3 | 0.00 | 0.91 | 0.84 | 85 | 1019.4 |
| 20260504193118 | 13 | 241 | 1.6 | 11.3 | 0.00 | 0.91 | 0.84 | 84 | 1014.8 |
| 20260504193001 | 13 | 262 | 6.4 | 14.5 | 0.00 | 0.91 | 0.84 | 84 | 1019.3 |
| 20260504192600 | 13 | 307 | 4.8 | 14.5 | 0.00 | 0.91 | 0.84 | 84 | 1014.8 |
| 20260504192104 | 13 | 292 | 4.8 | 14.5 | 0.00 | 0.91 | 0.84 | 83 | 1014.7 |
| 20260504192002 | 13 | 284 | 6.4 | 14.5 | 0.00 | 0.91 | 0.84 | 83 | 1019.3 |
| 20260504191608 | 14 | 300 | 4.8 | 14.5 | 0.00 | 0.91 | 0.84 | 82 | 1014.7 |
| 20260504191100 | 14 | 37 | 6.4 | 14.5 | 0.00 | 0.91 | 0.84 | 82 | 1014.6 |
| 20260504191004 | 14 | 319 | 6.4 | 14.5 | 0.00 | 0.91 | 0.84 | 82 | 1019.1 |
| 20260504190600 | 15 | 261 | 6.4 | 12.9 | 0.00 | 0.91 | 0.84 | 81 | 1014.6 |
| 20260504190501 | 15 | 315 | 6.4 | 11.3 | 0.00 | 0.91 | 0.84 | 80 | 1019.2 |
| 20260504190117 | 15 | 264 | 4.8 | 11.3 | 0.00 | 0.91 | 0.84 | 80 | 1014.6 |
| 20260504190005 | 15 | 279 | 4.8 | 11.3 | 0.00 | 0.91 | 0.84 | 80 | 1019.2 |
| 20260504190003 | 15 | 279 | 4.8 | 11.3 | 0.00 | 0.91 | 0.84 | 80 | 1014.6 |
| 20260504185600 | 15 | 296 | 4.8 | 9.7 | 0.00 | 0.97 | 0.84 | 80 | 1014.6 |
| 20260504185501 | 15 | 257 | 4.8 | 9.7 | 0.00 | 0.97 | 0.84 | 80 | 1019.1 |
| 20260504185100 | 15 | 279 | 4.8 | 9.7 | 0.00 | 0.97 | 0.84 | 79 | 1014.5 |
| 20260504185001 | 15 | 294 | 4.8 | 9.7 | 0.00 | 0.97 | 0.84 | 79 | 1019.0 |
| 20260504184636 | 15 | 282 | 3.2 | 9.7 | 0.00 | 0.97 | 0.84 | 79 | 1014.5 |
| 20260504184503 | 15 | 280 | 4.8 | 9.7 | 0.00 | 0.97 | 0.84 | 79 | 1019.0 |
| 20260504184501 | 15 | 280 | 4.8 | 9.7 | 0.00 | 0.97 | 0.84 | 79 | 1014.5 |
| 20260504184100 | 15 | 276 | 3.2 | 12.9 | 0.00 | 0.97 | 0.84 | 79 | 1014.5 |
| 20260504184001 | 15 | 268 | 6.4 | 12.9 | 0.00 | 0.97 | 0.84 | 79 | 1019.0 |
| 20260504183601 | 15 | 266 | 4.8 | 16.1 | 0.00 | 0.97 | 0.84 | 79 | 1014.5 |
| 20260504183501 | 15 | 278 | 8.0 | 16.1 | 0.00 | 0.97 | 0.84 | 78 | 1019.0 |
| 20260504183100 | 15 | 295 | 8.0 | 16.1 | 0.00 | 0.97 | 0.84 | 79 | 1014.5 |
| 20260504183001 | 15 | 297 | 8.0 | 16.1 | 0.00 | 0.97 | 0.84 | 79 | 1019.0 |
| 20260504182600 | 15 | 271 | 6.4 | 16.1 | 0.00 | 0.97 | 0.84 | 79 | 1014.5 |
| 20260504182502 | 15 | 270 | 6.4 | 16.1 | 0.00 | 0.97 | 0.84 | 79 | 1019.0 |
| 20260504182100 | 15 | 252 | 8.0 | 12.9 | 0.00 | 0.97 | 0.84 | 79 | 1014.4 |
| 20260504181600 | 15 | 305 | 4.8 | 12.9 | 0.00 | 0.97 | 0.84 | 79 | 1014.4 |
| 20260504181501 | 15 | 305 | 6.4 | 12.9 | 0.00 | 0.97 | 0.84 | 79 | 1019.0 |
| 20260504181100 | 15 | 268 | 6.4 | 12.9 | 0.00 | 0.97 | 0.84 | 80 | 1014.4 |
| 20260504181002 | 15 | 289 | 6.4 | 12.9 | 0.00 | 0.97 | 0.84 | 80 | 1019.0 |
| 20260504180604 | 15 | 153 | 4.8 | 12.9 | 0.00 | 0.97 | 0.84 | 80 | 1014.4 |
| 20260504180101 | 15 | 316 | 4.8 | 11.3 | 0.00 | 0.97 | 0.84 | 80 | 1014.4 |
| 20260504180006 | 15 | 244 | 4.8 | 11.3 | 0.00 | 0.97 | 0.84 | 80 | 1018.9 |
| 20260504180003 | 15 | 244 | 4.8 | 11.3 | 0.00 | 0.97 | 0.84 | 80 | 1014.4 |
| 20260504175600 | 15 | 300 | 3.2 | 14.5 | 0.00 | 0.97 | 0.84 | 80 | 1014.4 |
| 20260504175501 | 15 | 276 | 6.4 | 14.5 | 0.00 | 0.97 | 0.84 | 81 | 1019.0 |
| 20260504175100 | 15 | 264 | 6.4 | 14.5 | 0.00 | 0.97 | 0.84 | 80 | 1014.4 |
| 20260504175001 | 15 | 274 | 6.4 | 14.5 | 0.00 | 0.97 | 0.84 | 80 | 1018.9 |
| 20260504174600 | 15 | 295 | 4.8 | 11.3 | 0.00 | 0.97 | 0.84 | 81 | 1014.4 |
| 20260504174503 | 15 | 226 | 6.4 | 11.3 | 0.00 | 0.97 | 0.84 | 81 | 1018.9 |
| 20260504174100 | 15 | 258 | 4.8 | 12.9 | 0.00 | 0.97 | 0.84 | 81 | 1014.4 |
| 20260504174001 | 15 | 259 | 4.8 | 12.9 | 0.00 | 0.97 | 0.84 | 81 | 1019.0 |
| 20260504173504 | 15 | 252 | 4.8 | 12.9 | 0.00 | 0.97 | 0.84 | 82 | 1019.1 |
| 20260504173502 | 15 | 252 | 3.2 | 12.9 | 0.00 | 0.97 | 0.84 | 82 | 1014.6 |
| 20260504173101 | 15 | 262 | 6.4 | 12.9 | 0.00 | 0.97 | 0.84 | 82 | 1014.6 |
| 20260504172614 | 15 | 282 | 6.4 | 14.5 | 0.00 | 0.97 | 0.84 | 82 | 1019.1 |
| 20260504172151 | 15 | 284 | 4.8 | 14.5 | 0.00 | 0.97 | 0.84 | 82 | 1014.5 |
| 20260504172131 | 15 | 270 | 4.8 | 14.5 | 0.00 | 0.97 | 0.84 | 82 | 1019.0 |
| 20260504171615 | 15 | 291 | 3.2 | 9.7 | 0.00 | 0.97 | 0.84 | 81 | 1014.4 |
| 20260504171027 | 15 | 281 | 4.8 | 9.7 | 0.00 | 0.97 | 0.84 | 80 | 1019.0 |
| 20260504171007 | 15 | 277 | 3.2 | 9.7 | 0.00 | 0.97 | 0.84 | 80 | 1014.4 |
| 20260504170605 | 15 | 303 | 4.8 | 9.7 | 0.00 | 0.97 | 0.84 | 81 | 1014.5 |
| 20260504160106 | 15 | 275 | 3.2 | 12.9 | 0.00 | 0.97 | 0.84 | 80 | 1014.4 |
| 20260504151059 | 15 | 286 | 4.8 | 17.7 | 0.00 | 0.97 | 0.84 | 82 | 1014.3 |
| 20260504150600 | 14 | 271 | 6.4 | 14.5 | 0.00 | 0.97 | 0.84 | 81 | 1014.3 |
| 20260504150501 | 14 | 283 | 8.0 | 16.1 | 0.00 | 0.97 | 0.84 | 82 | 1018.9 |
| 20260504141101 | 13 | 328 | 4.8 | 12.9 | 0.03 | 0.97 | 0.84 | 93 | 1014.5 |
| 20260504141001 | 13 | 281 | 4.8 | 12.9 | 0.03 | 0.97 | 0.84 | 94 | 1019.0 |
| 20260504140601 | 13 | 307 | 4.8 | 12.9 | 0.03 | 0.97 | 0.84 | 93 | 1014.4 |
| 20260504140500 | 13 | 279 | 4.8 | 12.9 | 0.03 | 0.97 | 0.84 | 94 | 1018.9 |
| 20260504140112 | 13 | 288 | 4.8 | 12.9 | 0.03 | 0.97 | 0.84 | 93 | 1014.4 |
| 20260504130604 | 12 | 247 | 3.2 | 11.3 | 0.13 | 0.99 | 0.81 | 94 | 1014.8 |
| 20260504130501 | 12 | 219 | 4.8 | 11.3 | 0.15 | 0.99 | 0.81 | 94 | 1019.4 |
| 20260504120121 | 13 | 288 | 6.4 | 19.3 | 0.10 | 0.81 | 0.66 | 88 | 1014.8 |
| 20260504110600 | 13 | 233 | 9.7 | 19.3 | 0.00 | 0.71 | 0.56 | 87 | 1014.7 |
| 20260504110112 | 13 | 219 | 9.7 | 19.3 | 0.00 | 0.71 | 0.56 | 87 | 1014.7 |
| 20260504100600 | 13 | 276 | 8.0 | 16.1 | 0.18 | 0.71 | 0.56 | 90 | 1014.4 |
| 20260504100501 | 13 | 309 | 6.4 | 16.1 | 0.20 | 0.71 | 0.56 | 90 | 1019.0 |
| 20260504100113 | 13 | 277 | 6.4 | 16.1 | 0.23 | 0.71 | 0.56 | 90 | 1014.5 |
| 20260504082002 | 13 | 268 | 8.0 | 16.1 | 0.05 | 0.43 | 0.25 | 86 | 1018.3 |
| 20260504081502 | 13 | 261 | 6.4 | 16.1 | 0.05 | 0.38 | 0.23 | 86 | 1018.4 |
| 20260504081003 | 13 | 290 | 4.8 | 16.1 | 0.05 | 0.38 | 0.23 | 86 | 1018.7 |
| 20260504080501 | 13 | 276 | 3.2 | 16.1 | 0.05 | 0.38 | 0.23 | 87 | 1014.1 |
| 20260504050502 | 14 | 261 | 1.6 | 4.8 | 0.00 | 0.18 | 0.03 | 86 | 1017.2 |
| 20260504050005 | 14 | 271 | 1.6 | 6.4 | 0.00 | 0.18 | 0.03 | 86 | 1017.2 |
| 20260504050002 | 14 | 271 | 0.0 | 6.4 | 0.00 | 0.18 | 0.03 | 86 | 1012.7 |
| 20260504045502 | 14 | 235 | 0.0 | 6.4 | 0.00 | 0.18 | 0.03 | 85 | 1017.1 |
| 20260504045004 | 14 | 247 | 0.0 | 4.8 | 0.00 | 0.18 | 0.03 | 86 | 1017.0 |
| 20260504045001 | 14 | 247 | 0.0 | 4.8 | 0.00 | 0.18 | 0.03 | 86 | 1012.5 |
| 20260504044502 | 14 | 294 | 1.6 | 4.8 | 0.00 | 0.18 | 0.03 | 85 | 1017.1 |
| 20260504044002 | 14 | 250 | 1.6 | 4.8 | 0.00 | 0.18 | 0.03 | 85 | 1017.1 |
| 20260504043502 | 14 | 160 | 1.6 | 4.8 | 0.00 | 0.18 | 0.03 | 85 | 1017.0 |
| 20260504043005 | 14 | 269 | 1.6 | 8.0 | 0.00 | 0.18 | 0.03 | 85 | 1017.0 |
| 20260504043002 | 14 | 269 | 1.6 | 8.0 | 0.00 | 0.18 | 0.03 | 85 | 1012.5 |
| 20260504042502 | 14 | 220 | 3.2 | 8.0 | 0.00 | 0.18 | 0.03 | 86 | 1017.1 |
| 20260504042500 | 14 | 220 | 0.0 | 8.0 | 0.00 | 0.18 | 0.03 | 86 | 1012.6 |
| 20260504042001 | 14 | 243 | 3.2 | 8.0 | 0.00 | 0.18 | 0.03 | 86 | 1012.6 |
| 20260504041503 | 14 | 229 | 1.6 | 8.0 | 0.00 | 0.18 | 0.03 | 86 | 1012.7 |
| 20260504041002 | 14 | 221 | 3.2 | 12.9 | 0.00 | 0.18 | 0.03 | 86 | 1017.2 |
| 20260504040501 | 14 | 254 | 1.6 | 12.9 | 0.00 | 0.18 | 0.03 | 86 | 1012.7 |
| 20260504040006 | 14 | 270 | 3.2 | 8.0 | 0.00 | 0.18 | 0.03 | 87 | 1012.7 |
| 20260504035502 | 14 | 278 | 3.2 | 6.4 | 0.00 | 0.18 | 0.03 | 87 | 1017.3 |
| 20260504035002 | 14 | 236 | 3.2 | 6.4 | 0.03 | 0.18 | 0.03 | 87 | 1017.3 |
| 20260504034501 | 14 | 251 | 1.6 | 8.0 | 0.03 | 0.18 | 0.03 | 87 | 1012.7 |
| 20260504034002 | 14 | 262 | 3.2 | 9.7 | 0.03 | 0.18 | 0.03 | 87 | 1017.2 |
| 20260504033501 | 14 | 250 | 3.2 | 9.7 | 0.03 | 0.18 | 0.03 | 87 | 1017.3 |
| 20260504033003 | 14 | 204 | 3.2 | 8.0 | 0.03 | 0.18 | 0.03 | 88 | 1017.3 |
| 20260504032502 | 13 | 279 | 3.2 | 8.0 | 0.03 | 0.18 | 0.03 | 88 | 1017.4 |
| 20260504032004 | 13 | 300 | 3.2 | 8.0 | 0.03 | 0.18 | 0.03 | 88 | 1017.4 |
| 20260504032002 | 13 | 300 | 4.8 | 8.0 | 0.03 | 0.18 | 0.03 | 88 | 1012.9 |
| 20260504031504 | 14 | 240 | 3.2 | 8.0 | 0.03 | 0.18 | 0.03 | 87 | 1013.0 |
| 20260504031502 | 14 | 240 | 3.2 | 8.0 | 0.03 | 0.18 | 0.03 | 87 | 1017.5 |
| 20260504031005 | 14 | 262 | 1.6 | 8.0 | 0.03 | 0.18 | 0.03 | 87 | 1013.0 |
| 20260504031002 | 14 | 262 | 3.2 | 8.0 | 0.03 | 0.18 | 0.03 | 87 | 1017.5 |
| 20260504030501 | 14 | 276 | 3.2 | 6.4 | 0.03 | 0.18 | 0.03 | 86 | 1017.6 |
| 20260504030006 | 14 | 267 | 3.2 | 8.0 | 0.03 | 0.18 | 0.03 | 86 | 1017.5 |
| 20260504030003 | 14 | 267 | 1.6 | 8.0 | 0.03 | 0.18 | 0.03 | 86 | 1013.0 |
| 20260504025501 | 14 | 274 | 3.2 | 11.3 | 0.03 | 0.18 | 0.03 | 85 | 1013.0 |
| 20260504025002 | 14 | 250 | 4.8 | 11.3 | 0.00 | 0.15 | 0.00 | 85 | 1013.0 |
| 20260504024504 | 15 | 231 | 4.8 | 12.9 | 0.00 | 0.15 | 0.00 | 83 | 1013.0 |
| 20260504024005 | 15 | 293 | 3.2 | 12.9 | 0.00 | 0.15 | 0.00 | 83 | 1013.0 |
| 20260504023502 | 15 | 280 | 1.6 | 3.2 | 0.00 | 0.15 | 0.00 | 82 | 1017.5 |
| 20260504023003 | 15 | 257 | 1.6 | 4.8 | 0.00 | 0.15 | 0.00 | 83 | 1017.6 |
| 20260504023001 | 15 | 257 | 0.0 | 4.8 | 0.00 | 0.15 | 0.00 | 83 | 1013.0 |
| 20260504022504 | 15 | 286 | 1.6 | 4.8 | 0.00 | 0.15 | 0.00 | 82 | 1017.6 |
| 20260504022501 | 15 | 286 | 1.6 | 4.8 | 0.00 | 0.15 | 0.00 | 82 | 1013.1 |
| 20260504022003 | 15 | 284 | 0.0 | 3.2 | 0.00 | 0.15 | 0.00 | 82 | 1013.0 |
| 20260504021502 | 15 | 214 | 0.0 | 3.2 | 0.00 | 0.15 | 0.00 | 82 | 1017.5 |
| 20260504021002 | 15 | 193 | 1.6 | 3.2 | 0.00 | 0.15 | 0.00 | 82 | 1017.5 |
| 20260504020502 | 15 | 224 | 1.6 | 4.8 | 0.00 | 0.15 | 0.00 | 82 | 1017.4 |
| 20260504020006 | 15 | 135 | 1.6 | 4.8 | 0.00 | 0.15 | 0.00 | 82 | 1017.4 |
| 20260504020004 | 15 | 135 | 1.6 | 4.8 | 0.00 | 0.15 | 0.00 | 82 | 1012.9 |
| 20260504015502 | 15 | 203 | 0.0 | 4.8 | 0.00 | 0.15 | 0.00 | 82 | 1017.4 |
| 20260504015002 | 15 | 120 | 0.0 | 3.2 | 0.00 | 0.15 | 0.00 | 82 | 1017.4 |
| 20260504014504 | 15 | 277 | 0.0 | 4.8 | 0.00 | 0.15 | 0.00 | 82 | 1017.4 |
| 20260504014501 | 15 | 277 | 0.0 | 4.8 | 0.00 | 0.15 | 0.00 | 82 | 1012.9 |
| 20260504014002 | 14 | 233 | 1.6 | 4.8 | 0.00 | 0.15 | 0.00 | 82 | 1017.4 |
| 20260504013502 | 15 | 245 | 1.6 | 9.7 | 0.00 | 0.15 | 0.00 | 82 | 1017.5 |
| 20260504013115 | 15 | 236 | 3.2 | 9.7 | 0.00 | 0.15 | 0.00 | 82 | 1013.0 |
| 20260504013005 | 15 | 253 | 3.2 | 9.7 | 0.00 | 0.15 | 0.00 | 81 | 1017.5 |
| 20260504012601 | 15 | 268 | 3.2 | 9.7 | 0.00 | 0.15 | 0.00 | 81 | 1012.9 |
| 20260504012504 | 15 | 245 | 3.2 | 9.7 | 0.00 | 0.15 | 0.00 | 81 | 1017.5 |
| 20260504012502 | 15 | 245 | 3.2 | 9.7 | 0.00 | 0.15 | 0.00 | 81 | 1012.9 |
| 20260504012103 | 15 | 284 | 1.6 | 11.3 | 0.00 | 0.15 | 0.00 | 82 | 1012.9 |
| 20260504012001 | 15 | 231 | 4.8 | 11.3 | 0.00 | 0.15 | 0.00 | 82 | 1017.5 |
| 20260504011502 | 15 | 260 | 3.2 | 11.3 | 0.00 | 0.15 | 0.00 | 82 | 1017.6 |
| 20260504011102 | 14 | 250 | 3.2 | 8.0 | 0.00 | 0.15 | 0.00 | 83 | 1013.1 |
| 20260504011001 | 14 | 249 | 1.6 | 8.0 | 0.00 | 0.15 | 0.00 | 83 | 1017.6 |
| 20260504010600 | 14 | 249 | 1.6 | 8.0 | 0.00 | 0.15 | 0.00 | 83 | 1013.0 |
| 20260504010504 | 14 | 247 | 3.2 | 8.0 | 0.00 | 0.15 | 0.00 | 83 | 1017.5 |
| 20260504010502 | 14 | 247 | 3.2 | 8.0 | 0.00 | 0.15 | 0.00 | 83 | 1013.0 |
| 20260504010104 | 14 | 202 | 0.0 | 9.7 | 0.00 | 0.15 | 0.00 | 84 | 1012.9 |
| 20260504010002 | 14 | 108 | 1.6 | 9.7 | 0.00 | 0.15 | 0.00 | 84 | 1012.9 |
| 20260504005600 | 14 | 267 | 3.2 | 9.7 | 0.00 | 0.15 | 0.00 | 84 | 1012.8 |
| 20260504005502 | 14 | 276 | 3.2 | 9.7 | 0.00 | 0.15 | 0.00 | 85 | 1017.4 |
| 20260504005100 | 14 | 259 | 1.6 | 8.0 | 0.00 | 0.15 | 0.00 | 85 | 1012.9 |
| 20260504005001 | 14 | 270 | 3.2 | 8.0 | 0.00 | 0.15 | 0.00 | 85 | 1017.4 |
| 20260504004622 | 14 | 291 | 1.6 | 8.0 | 0.00 | 0.15 | 0.00 | 85 | 1012.8 |
| 20260504004500 | 14 | 295 | 3.2 | 8.0 | 0.00 | 0.15 | 0.00 | 85 | 1017.4 |
| 20260504004059 | 14 | 267 | 3.2 | 8.0 | 0.00 | 0.15 | 0.00 | 85 | 1012.8 |
| 20260504004001 | 14 | 300 | 3.2 | 8.0 | 0.00 | 0.15 | 0.00 | 85 | 1017.2 |
| 20260504003559 | 14 | 279 | 1.6 | 12.9 | 0.00 | 0.15 | 0.00 | 86 | 1012.7 |
| 20260504003502 | 14 | 285 | 4.8 | 12.9 | 0.00 | 0.15 | 0.00 | 86 | 1017.2 |
| 20260504003103 | 14 | 267 | 4.8 | 12.9 | 0.00 | 0.15 | 0.00 | 86 | 1012.6 |
| 20260504003001 | 14 | 259 | 4.8 | 12.9 | 0.00 | 0.15 | 0.00 | 86 | 1017.3 |
| 20260504002601 | 14 | 248 | 4.8 | 12.9 | 0.00 | 0.15 | 0.00 | 87 | 1012.6 |
| 20260504002501 | 14 | 266 | 6.4 | 12.9 | 0.00 | 0.15 | 0.00 | 87 | 1017.1 |
| 20260504002104 | 14 | 229 | 6.4 | 19.3 | 0.00 | 0.15 | 0.00 | 86 | 1012.5 |
| 20260504002003 | 15 | 255 | 6.4 | 19.3 | 0.00 | 0.15 | 0.00 | 86 | 1017.0 |
| 20260504001607 | 14 | 263 | 6.4 | 19.3 | 0.00 | 0.15 | 0.00 | 86 | 1012.6 |
| 20260504001501 | 14 | 259 | 6.4 | 19.3 | 0.00 | 0.15 | 0.00 | 86 | 1017.1 |
| 20260504001102 | 15 | 293 | 3.2 | 12.9 | 0.00 | 0.15 | 0.00 | 86 | 1012.6 |
| 20260504001003 | 14 | 272 | 4.8 | 12.9 | 0.00 | 0.15 | 0.00 | 86 | 1017.1 |
| 20260504000600 | 15 | 257 | 4.8 | 11.3 | 0.00 | 0.15 | 0.00 | 86 | 1012.7 |
| 20260504000501 | 15 | 229 | 4.8 | 11.3 | 0.00 | 0.15 | 0.00 | 86 | 1017.2 |
| 20260504000105 | 15 | 306 | 3.2 | 9.7 | 0.00 | 0.15 | 0.00 | 86 | 1012.7 |
| 20260504000006 | 15 | 282 | 4.8 | 16.1 | 0.00 | 0.15 | 0.00 | 85 | 1017.2 |
| 20260504000002 | 15 | 282 | 3.2 | 16.1 | 0.00 | 0.15 | 0.00 | 85 | 1012.7 |
| 20260503235604 | 15 | 224 | 3.2 | 17.7 | 0.00 | 0.15 | 0.00 | 85 | 1012.8 |
| 20260503235501 | 15 | 266 | 8.0 | 17.7 | 0.00 | 0.15 | 0.00 | 85 | 1017.3 |
| 20260503235103 | 15 | 253 | 9.7 | 17.7 | 0.00 | 0.15 | 0.00 | 85 | 1012.8 |
| 20260503235003 | 15 | 222 | 9.7 | 17.7 | 0.00 | 0.15 | 0.00 | 85 | 1017.4 |
| 20260503234600 | 15 | 249 | 6.4 | 19.3 | 0.00 | 0.15 | 0.00 | 85 | 1012.8 |
| 20260503234501 | 15 | 289 | 8.0 | 19.3 | 0.00 | 0.15 | 0.00 | 86 | 1017.3 |
| 20260503234100 | 15 | 285 | 6.4 | 19.3 | 0.00 | 0.15 | 0.00 | 85 | 1012.6 |
| 20260503233601 | 15 | 305 | 6.4 | 24.1 | 0.00 | 0.15 | 0.00 | 85 | 1012.5 |
| 20260503233101 | 15 | 253 | 8.0 | 24.1 | 0.00 | 0.15 | 0.00 | 84 | 1012.8 |
| 20260503233006 | 15 | 241 | 11.3 | 24.1 | 0.00 | 0.15 | 0.00 | 84 | 1017.3 |
| 20260503232600 | 15 | 288 | 11.3 | 24.1 | 0.00 | 0.15 | 0.00 | 85 | 1012.8 |
| 20260503232501 | 15 | 248 | 11.3 | 24.1 | 0.00 | 0.15 | 0.00 | 85 | 1017.4 |
| 20260503232101 | 15 | 300 | 8.0 | 25.7 | 0.00 | 0.15 | 0.00 | 86 | 1012.7 |
| 20260503232001 | 15 | 302 | 11.3 | 25.7 | 0.00 | 0.15 | 0.00 | 86 | 1017.2 |
| 20260503231602 | 15 | 265 | 11.3 | 32.2 | 0.00 | 0.15 | 0.00 | 87 | 1012.8 |
| 20260503231501 | 15 | 274 | 12.9 | 32.2 | 0.00 | 0.15 | 0.00 | 88 | 1017.3 |
| 20260503231104 | 15 | 217 | 12.9 | 32.2 | 0.00 | 0.15 | 0.00 | 88 | 1012.8 |
| 20260503231003 | 15 | 262 | 11.3 | 32.2 | 0.00 | 0.15 | 0.00 | 88 | 1017.4 |
| 20260503230601 | 15 | 236 | 8.0 | 19.3 | 0.00 | 0.15 | 0.00 | 89 | 1012.8 |
| 20260503230112 | 15 | 273 | 8.0 | 16.1 | 0.00 | 0.15 | 0.00 | 90 | 1012.6 |
| 20260503230005 | 15 | 259 | 4.8 | 14.5 | 0.00 | 0.15 | 0.00 | 90 | 1017.1 |
| 20260503230003 | 15 | 259 | 6.4 | 14.5 | 0.00 | 0.15 | 0.00 | 90 | 1012.6 |
| 20260503225600 | 15 | 258 | 4.8 | 12.9 | 0.00 | 0.15 | 0.00 | 90 | 1012.6 |
| 20260503225501 | 15 | 234 | 3.2 | 12.9 | 0.00 | 0.15 | 0.00 | 90 | 1017.1 |
| 20260503225100 | 15 | 289 | 3.2 | 9.7 | 0.00 | 0.15 | 0.00 | 91 | 1012.5 |
| 20260503225003 | 15 | 278 | 3.2 | 9.7 | 0.00 | 0.15 | 0.00 | 90 | 1016.9 |
| 20260503224600 | 15 | 273 | 3.2 | 6.4 | 0.00 | 0.15 | 0.00 | 91 | 1012.3 |
| 20260503224501 | 15 | 264 | 3.2 | 6.4 | 0.00 | 0.15 | 0.00 | 91 | 1016.8 |
| 20260503224100 | 15 | 284 | 1.6 | 4.8 | 0.00 | 0.15 | 0.00 | 91 | 1012.2 |
| 20260503223601 | 15 | 292 | 0.0 | 3.2 | 0.00 | 0.15 | 0.00 | 90 | 1012.1 |
| 20260503223501 | 15 | 318 | 0.0 | 1.6 | 0.00 | 0.15 | 0.00 | 90 | 1016.6 |
| 20260503223101 | 15 | 73 | 0.0 | 0.0 | 0.00 | 0.15 | 0.00 | 91 | 1012.0 |
| 20260503223003 | 15 | 73 | 0.0 | 0.0 | 0.00 | 0.15 | 0.00 | 91 | 1016.5 |
| 20260503222600 | 15 | 73 | 0.0 | 1.6 | 0.00 | 0.15 | 0.00 | 91 | 1012.0 |
| 20260503222501 | 15 | 73 | 0.0 | 1.6 | 0.00 | 0.15 | 0.00 | 91 | 1016.5 |
| 20260503222101 | 15 | 74 | 0.0 | 1.6 | 0.00 | 0.15 | 0.00 | 91 | 1012.1 |
| 20260503222003 | 15 | 74 | 0.0 | 1.6 | 0.00 | 0.15 | 0.00 | 90 | 1016.6 |
| 20260503221601 | 15 | 92 | 0.0 | 1.6 | 0.00 | 0.15 | 0.00 | 91 | 1012.2 |
| 20260503221501 | 15 | 93 | 0.0 | 1.6 | 0.00 | 0.15 | 0.00 | 91 | 1016.7 |
| 20260503221103 | 15 | 93 | 0.0 | 1.6 | 0.00 | 0.15 | 0.00 | 91 | 1012.2 |
| 20260503221002 | 15 | 93 | 0.0 | 1.6 | 0.00 | 0.15 | 0.00 | 91 | 1016.7 |
| 20260503220600 | 15 | 139 | 0.0 | 1.6 | 0.00 | 0.15 | 0.00 | 90 | 1012.2 |
| 20260503220501 | 15 | 137 | 0.0 | 1.6 | 0.00 | 0.15 | 0.00 | 90 | 1016.7 |
| 20260503220103 | 15 | 108 | 0.0 | 0.0 | 0.00 | 0.15 | 0.00 | 91 | 1012.2 |
| 20260503220004 | 15 | 108 | 0.0 | 0.0 | 0.00 | 0.15 | 0.00 | 91 | 1012.2 |
| 20260503215600 | 15 | 108 | 0.0 | 1.6 | 0.00 | 0.15 | 0.15 | 91 | 1012.2 |
| 20260503215501 | 15 | 109 | 0.0 | 1.6 | 0.00 | 0.15 | 0.15 | 91 | 1016.7 |
| 20260503215100 | 15 | 107 | 0.0 | 3.2 | 0.00 | 0.15 | 0.15 | 91 | 1012.2 |
| 20260503214609 | 15 | 113 | 0.0 | 3.2 | 0.00 | 0.15 | 0.15 | 91 | 1012.1 |
| 20260503214501 | 15 | 104 | 0.0 | 1.6 | 0.00 | 0.15 | 0.15 | 91 | 1016.7 |
| 20260503214100 | 15 | 181 | 0.0 | 3.2 | 0.00 | 0.15 | 0.15 | 91 | 1012.2 |
| 20260503214004 | 15 | 181 | 1.6 | 3.2 | 0.00 | 0.15 | 0.15 | 91 | 1016.7 |
| 20260503213600 | 15 | 107 | 0.0 | 3.2 | 0.00 | 0.15 | 0.15 | 91 | 1012.2 |
| 20260503213103 | 16 | 108 | 0.0 | 3.2 | 0.00 | 0.15 | 0.15 | 91 | 1012.2 |
| 20260503213002 | 16 | 108 | 0.0 | 3.2 | 0.00 | 0.15 | 0.15 | 91 | 1016.8 |
| 20260503212600 | 16 | 169 | 0.0 | 3.2 | 0.00 | 0.15 | 0.15 | 90 | 1012.1 |
| 20260503212103 | 16 | 136 | 1.6 | 3.2 | 0.00 | 0.15 | 0.15 | 90 | 1012.0 |
| 20260503211606 | 16 | 86 | 0.0 | 3.2 | 0.00 | 0.15 | 0.15 | 91 | 1012.1 |
| 20260503211503 | 16 | 124 | 1.6 | 3.2 | 0.00 | 0.15 | 0.15 | 90 | 1016.6 |
| 20260503211100 | 16 | 77 | 0.0 | 3.2 | 0.00 | 0.15 | 0.15 | 90 | 1012.1 |
| 20260503211002 | 16 | 88 | 0.0 | 3.2 | 0.00 | 0.15 | 0.15 | 90 | 1016.6 |
| 20260503210600 | 16 | 69 | 0.0 | 1.6 | 0.00 | 0.15 | 0.15 | 90 | 1012.1 |
| 20260503210501 | 16 | 84 | 0.0 | 1.6 | 0.00 | 0.15 | 0.15 | 90 | 1016.6 |
| 20260503210100 | 16 | 93 | 0.0 | 1.6 | 0.00 | 0.15 | 0.15 | 90 | 1012.1 |
| 20260503210006 | 16 | 90 | 1.6 | 1.6 | 0.00 | 0.15 | 0.15 | 90 | 1016.6 |
| 20260503210004 | 16 | 90 | 0.0 | 1.6 | 0.00 | 0.15 | 0.15 | 90 | 1012.1 |
| 20260503205600 | 16 | 78 | 0.0 | 1.6 | 0.00 | 0.15 | 0.15 | 90 | 1012.2 |
| 20260503205502 | 16 | 77 | 0.0 | 1.6 | 0.00 | 0.15 | 0.15 | 90 | 1016.7 |
| 20260503205101 | 16 | 125 | 0.0 | 1.6 | 0.00 | 0.15 | 0.15 | 90 | 1012.3 |
| 20260503205002 | 16 | 125 | 0.0 | 1.6 | 0.00 | 0.15 | 0.15 | 90 | 1016.8 |
| 20260503204502 | 16 | 125 | 0.0 | 1.6 | 0.03 | 0.15 | 0.15 | 90 | 1016.8 |
| 20260503204100 | 16 | 285 | 0.0 | 3.2 | 0.03 | 0.15 | 0.15 | 90 | 1012.3 |
| 20260503204002 | 16 | 285 | 0.0 | 3.2 | 0.03 | 0.15 | 0.15 | 90 | 1016.8 |
| 20260503203600 | 16 | 284 | 0.0 | 4.8 | 0.03 | 0.15 | 0.15 | 90 | 1012.3 |
| 20260503203502 | 16 | 283 | 1.6 | 4.8 | 0.03 | 0.15 | 0.15 | 90 | 1016.8 |
| 20260503203106 | 16 | 278 | 0.0 | 4.8 | 0.05 | 0.15 | 0.15 | 90 | 1012.2 |
| 20260503203002 | 16 | 278 | 1.6 | 4.8 | 0.05 | 0.15 | 0.15 | 90 | 1016.8 |